[[{"header":{"parameterUnit":"m.s-1","parameterCategory":1,"la1":30.2991,"la2":30.254,"lo1":-89.0895,"lo2":-89.0444,"dy":0.0017,"dx":0.0017,"nx":28,"ny":28,"refTime":"2023-09-15T09:00:00:Z","depth":0,"parameterNumber":2,"parameterNumberName":"U-component_of_WINDS"},"data":[0,0,0,0,0,0,0,0,0,0,0,0,0,0,0,0,0,0,0,0,0,0,0,0,0,0,0,0,0,0,0,0,0,0,0,0,0,0,0,0,0,0,0,0,0,0,0,0,0,0,0,0,0,0,0,0,0,0,-2.0152,-2.0151,0,-2.013,-2.013,-2.0129,-2.0059,-2.0058,-2.0056,-2.0055,-2.0033,-2.0034,-2.0035,0,0,0,0,0,0,0,0,0,0,0,0,0,-2.0132,-2.0133,-2.0152,-2.0151,-2.0151,-2.013,-2.013,-2.0129,-2.0059,-2.0058,-2.0056,-2.0054,-2.0033,-2.0034,-2.0035,0,0,0,0,0,0,0,0,0,0,0,0,0,-2.0129,-2.0133,-2.0152,-2.0114,-2.011,-2.013,-2.013,-2.0129,-2.006,-2.0058,-2.0055,-2.0053,-2.0032,-2.0033,-2.0035,-2.009,0,0,-2.0039,-2.0039,0,0,0,0,0,0,0,0,-2.0129,-2.013,-2.012,-2.0116,-2.0112,-2.0095,-2.0115,-2.0116,-2.006,-2.0079,-2.0055,-2.0052,-2.0055,-2.0055,-2.0056,-2.0089,-2.0088,-2.0039,-2.004,-2.004,-2.0041,0,0,0,0,0,0,0,-2.0129,-2.013,-2.0143,-2.0119,-2.0115,-2.0098,-2.0095,-2.0115,-2.0081,-2.0077,-2.0072,-2.007,-2.0053,-2.0055,-2.0055,-2.0088,-2.0039,-2.004,-2.0041,-2.0041,-2.0162,-2.0165,0,0,0,0,0,0,-2.0135,-2.0131,-2.0144,-2.0142,-2.0115,-2.01,-2.0096,-2.0103,-2.008,-2.0074,-2.0072,-2.0067,-2.0054,-2.0053,-2.0054,-2.0114,-2.004,-2.0042,-2.0042,-2.016,-2.0163,-2.0166,0,0,0,0,0,0,-2.0135,-2.0137,-2.0145,-2.0135,-2.0135,-2.0103,-2.0111,-2.0104,-2.0105,-2.0077,-2.007,-2.008,-2.0052,-2.0052,-2.0081,-2.0113,-2.0042,-2.0043,-2.0157,-2.0161,-2.0164,-2.0238,0,0,0,0,0,0,-2.0135,-2.0137,-2.0158,-2.0136,-2.0136,-2.0172,-2.0113,-2.0105,-2.0108,-2.0101,-2.0082,-2.0077,-2.005,-2.0079,-2.0082,-2.0113,-2.0044,-2.0154,-2.0159,-2.0163,-2.0232,-2.0244,-2.0253,0,0,0,0,0,-2.0134,-2.018,-2.0159,-2.0161,-2.0161,-2.0174,-2.0174,-2.0142,-2.0111,-2.0131,-2.0112,-2.0078,-2.011,-2.0083,-2.0085,-2.0118,-2.0152,-2.0158,-2.0163,-2.0228,-2.0241,-2.0253,0,0,0,0,0,0,-2.0207,-2.0177,-2.0153,-2.0193,-2.0187,-2.0162,-2.0187,-2.0157,-2.016,-2.0153,-2.0113,-2.011,-2.0144,-2.0134,-2.0105,-2.0169,-2.0125,-2.0131,-2.0173,-2.0186,-2.0196,-2.0197,-2.0045,0,0,0,0,0,-2.0228,-2.0241,-2.0214,-2.0252,-2.025,-2.0219,-2.0224,-2.02,-2.0191,-2.0188,-2.0172,-2.0165,-2.0173,-2.018,-2.0186,-2.0232,-2.0225,-2.0255,-2.0265,-2.0274,-2.0279,-2.03,-2.0312,-2.0184,-2.0184,-2.0183,0,0,-2.0271,-2.0256,-2.0267,-2.0266,-2.0258,-2.0273,-2.0217,-2.0236,-2.0245,-2.0191,-2.0216,-2.0205,-2.0195,-2.0232,-2.0247,-2.0224,-2.0314,-2.0281,-2.0288,-2.0288,-2.0307,-2.0319,-2.033,-2.0187,-2.0187,-2.0186,0,0,-2.0355,-2.0346,-2.0376,-2.0369,-2.0357,-2.0336,-2.0344,-2.0324,-2.0313,-2.0338,-2.0297,-2.0309,-2.0325,-2.0318,-2.0317,-2.0399,-2.0367,-2.0403,-2.0456,-2.0477,-2.0487,-2.0496,-2.0523,-2.0533,-2.0409,-2.0409,-2.0409,0,-2.0409,-2.0429,-2.0395,-2.0415,-2.0415,-2.0367,-2.0396,-2.0391,-2.0382,-2.0383,-2.0359,-2.0376,-2.0366,-2.04,-2.0419,-2.0421,-2.0427,-2.0403,-2.0489,-2.0497,-2.0505,-2.053,-2.0541,-2.0413,-2.0413,-2.0412,-2.0412,0,-2.0496,-2.051,-2.0536,-2.0527,-2.0531,-2.0556,-2.0524,-2.0532,-2.0508,-2.049,-2.0515,-2.0502,-2.0503,-2.051,-2.0487,-2.054,-2.0526,-2.0496,-2.0451,-2.0522,-2.0545,-2.0554,-2.0419,-2.0418,-2.0416,-2.0415,0,0,-2.0624,-2.0596,-2.0606,-2.06,-2.0584,-2.0595,-2.0617,-2.0618,-2.0625,-2.0621,-2.0637,-2.0652,-2.0623,-2.0622,-2.0598,-2.0617,-2.068,-2.0584,-2.0583,-2.06,-2.0735,-2.0756,-2.0768,-2.0659,-2.0661,-2.0663,-2.0735,0,-2.0702,-2.0737,-2.0707,-2.0748,-2.076,-2.0714,-2.0733,-2.0725,-2.0709,-2.0717,-2.0699,-2.0709,-2.0672,-2.067,-2.0687,-2.0669,-2.0706,-2.0663,-2.0673,-2.0674,-2.0674,-2.078,-2.0803,-2.0872,-2.0744,-2.0746,-2.0747,0,-2.0797,-2.0796,-2.0838,-2.0818,-2.0822,-2.084,-2.0837,-2.0846,-2.0836,-2.0822,-2.0821,-2.0791,-2.0811,-2.0769,-2.0795,-2.0767,-2.0769,-2.0761,-2.0762,-2.076,-2.0713,-2.0778,-2.0893,-2.0903,-2.0761,-2.076,-2.0759,0,-2.0883,-2.0893,-2.0918,-2.0916,-2.0894,-2.0907,-2.0898,-2.0886,-2.0888,-2.0887,-2.0887,-2.0889,-2.0889,-2.0891,-2.0862,-2.0834,-2.0891,-2.0847,-2.0879,-2.088,-2.0891,-2.089,-2.1005,-2.0897,-2.0897,-2.0897,-2.0897,0,-2.0971,-2.0998,-2.0956,-2.0972,-2.1001,-2.0966,-2.0995,-2.0982,-2.0971,-2.0983,-2.0945,-2.0957,-2.0919,-2.0927,-2.0905,-2.0929,-2.093,-2.0919,-2.0912,-2.092,-2.0922,-2.0919,-2.0913,-2.09,-2.0899,-2.0899,-2.0898,0,-2.1071,-2.1044,-2.1069,-2.1046,-2.104,-2.1062,-2.1042,-2.1055,-2.1037,-2.1052,-2.1054,-2.1025,-2.1033,-2.1005,-2.1008,-2.0993,-2.1027,-2.1014,-2.103,-2.1025,-2.1057,-2.1054,-2.1173,-2.1186,-2.1073,-2.1074,-2.1075,0,-2.1127,-2.1147,-2.1125,-2.113,-2.1123,-2.1132,-2.1134,-2.1101,-2.1104,-2.1094,-2.1108,-2.1112,-2.1113,-2.1127,-2.1106,-2.1108,-2.1093,-2.1135,-2.1093,-2.11,-2.109,-2.1088,-2.1089,-2.1143,-2.1144,-2.1145,-2.1146,0,-2.123,-2.1215,-2.1219,-2.1219,-2.1222,-2.122,-2.1215,-2.1221,-2.1185,-2.1191,-2.1198,-2.1199,-2.1202,-2.1206,-2.1203,-2.1194,-2.1163,-2.116,-2.1167,-2.1174,-2.1182,-2.1175,-2.105,-2.1157,-2.1156,-2.1155,-2.1154,-2.1154,-2.1307,-2.1322,-2.1308,-2.1314,-2.1307,-2.1303,-2.1314,-2.1297,-2.1301,-2.13,-2.1281,-2.1291,-2.128,-2.1273,-2.1267,-2.1274,-2.1254,-2.1265,-2.1267,-2.127,-2.1274,-2.1183,-2.1274,-2.1274,-2.1273,-2.1273,-2.1273,0,-2.1405,-2.1394,-2.14,-2.1394,-2.1398,-2.137,-2.1363,-2.1368,-2.1378,-2.137,-2.1372,-2.1379,-2.1382,-2.1362,-2.1363,-2.1372,-2.1358,-2.1373,-2.1371,-2.1369,-2.1293,-2.1286,-2.1384,-2.1384,-2.1384,-2.1384,-2.1384,-2.1384,-2.1456,-2.1478,-2.1462,-2.148,-2.1469,-2.1479,-2.1477,-2.1473,-2.1466,-2.1476,-2.1478,-2.1465,-2.1452,-2.1451,-2.1453,-2.1447,-2.1448,-2.1467,-2.1456,-2.1385,-2.1374,-2.1364,-2.1356,-2.1468,-2.1468,-2.153,-2.1531,-2.1531]},{"header":{"parameterUnit":"m.s-1","parameterCategory":1,"la1":30.2991,"la2":30.254,"lo1":-89.0895,"lo2":-89.0444,"dy":0.0017,"dx":0.0017,"nx":28,"ny":28,"refTime":"2023-09-15T09:00:00:Z","depth":0,"parameterNumber":3,"parameterNumberName":"V-component_of_WINDS"},"data":[0,0,0,0,0,0,0,0,0,0,0,0,0,0,0,0,0,0,0,0,0,0,0,0,0,0,0,0,0,0,0,0,0,0,0,0,0,0,0,0,0,0,0,0,0,0,0,0,0,0,0,0,0,0,0,0,0,0,-1.6305,-1.6306,0,-1.6408,-1.641,-1.6411,-1.6476,-1.6476,-1.6476,-1.6477,-1.6583,-1.6586,-1.6588,0,0,0,0,0,0,0,0,0,0,0,0,0,-1.6164,-1.6167,-1.6305,-1.6306,-1.6308,-1.6408,-1.641,-1.6411,-1.6476,-1.6476,-1.6477,-1.6477,-1.6582,-1.6585,-1.6588,0,0,0,0,0,0,0,0,0,0,0,0,0,-1.6242,-1.6167,-1.6305,-1.6352,-1.6357,-1.6408,-1.641,-1.6412,-1.6476,-1.6476,-1.6477,-1.6477,-1.6581,-1.6585,-1.6589,-1.6601,0,0,-1.66,-1.6602,0,0,0,0,0,0,0,0,-1.6238,-1.6247,-1.6344,-1.6349,-1.6355,-1.643,-1.6399,-1.6475,-1.6475,-1.6431,-1.6477,-1.6477,-1.6532,-1.654,-1.6558,-1.6606,-1.661,-1.66,-1.6603,-1.6604,-1.6605,0,0,0,0,0,0,0,-1.6232,-1.6243,-1.6346,-1.6345,-1.6352,-1.6368,-1.638,-1.6414,-1.6477,-1.6435,-1.644,-1.6451,-1.6535,-1.6554,-1.6561,-1.6612,-1.66,-1.6604,-1.6606,-1.6607,-1.6675,-1.6675,0,0,0,0,0,0,-1.6219,-1.6238,-1.6343,-1.6349,-1.6296,-1.637,-1.6383,-1.6405,-1.6477,-1.6488,-1.645,-1.6454,-1.6547,-1.6556,-1.6565,-1.6583,-1.6604,-1.6608,-1.661,-1.6675,-1.6675,-1.6674,0,0,0,0,0,0,-1.6216,-1.6228,-1.6339,-1.6295,-1.6311,-1.6372,-1.6396,-1.6407,-1.6426,-1.6489,-1.65,-1.6458,-1.6548,-1.6559,-1.6591,-1.6588,-1.6609,-1.6613,-1.6676,-1.6675,-1.6675,-1.662,0,0,0,0,0,0,-1.6212,-1.6227,-1.6231,-1.6295,-1.6313,-1.6363,-1.6396,-1.6409,-1.6432,-1.6437,-1.6499,-1.651,-1.6549,-1.6585,-1.6595,-1.6593,-1.6616,-1.6677,-1.6676,-1.6675,-1.6623,-1.6618,-1.6614,0,0,0,0,0,-1.6207,-1.6212,-1.6231,-1.6244,-1.632,-1.6363,-1.6373,-1.6418,-1.6432,-1.6437,-1.6478,-1.6508,-1.6587,-1.6588,-1.6599,-1.6599,-1.6677,-1.6676,-1.6675,-1.6625,-1.6619,-1.6614,0,0,0,0,0,0,-1.6147,-1.6221,-1.6243,-1.627,-1.6309,-1.6373,-1.6382,-1.6411,-1.6447,-1.645,-1.6506,-1.6519,-1.6545,-1.6576,-1.6576,-1.6614,-1.6635,-1.6637,-1.6593,-1.6588,-1.6584,-1.6575,-1.6619,0,0,0,0,0,-1.6137,-1.6165,-1.6229,-1.6246,-1.6265,-1.632,-1.634,-1.6371,-1.6415,-1.6432,-1.6474,-1.6515,-1.655,-1.6571,-1.6606,-1.6628,-1.6642,-1.6633,-1.6629,-1.6625,-1.6625,-1.6638,-1.6635,-1.6671,-1.6671,-1.6671,0,0,-1.6117,-1.6161,-1.6175,-1.6235,-1.6269,-1.6297,-1.6333,-1.6361,-1.6383,-1.6436,-1.6469,-1.6501,-1.6551,-1.6577,-1.6592,-1.6604,-1.6618,-1.6623,-1.662,-1.6622,-1.6637,-1.6634,-1.663,-1.6671,-1.6671,-1.6671,0,0,-1.6093,-1.613,-1.6148,-1.6181,-1.6233,-1.627,-1.6274,-1.6334,-1.6357,-1.6391,-1.6431,-1.6458,-1.6516,-1.6549,-1.6574,-1.6563,-1.6592,-1.6573,-1.6549,-1.6562,-1.6559,-1.6557,-1.6553,-1.655,-1.6573,-1.6573,-1.6573,0,-1.6061,-1.6105,-1.6153,-1.6179,-1.6204,-1.6254,-1.6272,-1.6303,-1.6363,-1.6379,-1.6392,-1.6466,-1.6503,-1.6538,-1.6535,-1.6554,-1.656,-1.6566,-1.6556,-1.6554,-1.6553,-1.6549,-1.6547,-1.657,-1.6571,-1.6571,-1.6571,0,-1.6062,-1.6092,-1.61,-1.6157,-1.6183,-1.6205,-1.6257,-1.6278,-1.6307,-1.6343,-1.6376,-1.6422,-1.6467,-1.6478,-1.6507,-1.6517,-1.6523,-1.6545,-1.6567,-1.6545,-1.6543,-1.6542,-1.6567,-1.6568,-1.6568,-1.6569,0,0,-1.6004,-1.6087,-1.6089,-1.6115,-1.6176,-1.62,-1.6224,-1.6268,-1.6284,-1.6325,-1.6346,-1.6394,-1.6415,-1.6443,-1.6476,-1.6487,-1.6476,-1.6508,-1.651,-1.65,-1.6489,-1.6471,-1.6469,-1.6496,-1.6496,-1.6496,-1.6485,0,-1.5989,-1.6034,-1.6079,-1.6108,-1.6136,-1.6184,-1.6205,-1.6245,-1.6279,-1.6308,-1.6346,-1.6378,-1.6403,-1.642,-1.6434,-1.6474,-1.6474,-1.6476,-1.6516,-1.6517,-1.6501,-1.6468,-1.6449,-1.6436,-1.6484,-1.6484,-1.6484,0,-1.5977,-1.6014,-1.6046,-1.6104,-1.6117,-1.6135,-1.6179,-1.6206,-1.6252,-1.6276,-1.6307,-1.6343,-1.6371,-1.6391,-1.643,-1.6431,-1.645,-1.6472,-1.6473,-1.6478,-1.6498,-1.647,-1.6433,-1.6431,-1.6483,-1.6483,-1.6483,0,-1.5929,-1.5988,-1.6015,-1.6036,-1.6104,-1.6115,-1.6145,-1.6191,-1.6215,-1.6253,-1.6269,-1.631,-1.6333,-1.6364,-1.641,-1.642,-1.6445,-1.6468,-1.6465,-1.6464,-1.6467,-1.6466,-1.6431,-1.6481,-1.6481,-1.6481,-1.6481,0,-1.5907,-1.5924,-1.5994,-1.601,-1.6031,-1.6083,-1.6103,-1.6136,-1.6177,-1.6201,-1.6246,-1.6267,-1.6327,-1.6356,-1.6393,-1.642,-1.643,-1.645,-1.6459,-1.6445,-1.6442,-1.6458,-1.6459,-1.6481,-1.6481,-1.6481,-1.6481,0,-1.5857,-1.5904,-1.5936,-1.5998,-1.6014,-1.6027,-1.6081,-1.6098,-1.6135,-1.6165,-1.6175,-1.6232,-1.6269,-1.6318,-1.637,-1.6394,-1.6416,-1.6431,-1.64,-1.6405,-1.6399,-1.6398,-1.6372,-1.6371,-1.6422,-1.6421,-1.6421,0,-1.5839,-1.5853,-1.5917,-1.5935,-1.5963,-1.5993,-1.6017,-1.6069,-1.6092,-1.6146,-1.6157,-1.6197,-1.6231,-1.6287,-1.6334,-1.6374,-1.6389,-1.6378,-1.6396,-1.6381,-1.6388,-1.6386,-1.6388,-1.6372,-1.6372,-1.6371,-1.637,0,-1.5801,-1.5824,-1.5856,-1.5897,-1.5924,-1.5959,-1.5996,-1.6009,-1.6069,-1.6093,-1.613,-1.6157,-1.6209,-1.6248,-1.6294,-1.6325,-1.6357,-1.6365,-1.6366,-1.6351,-1.6332,-1.6341,-1.6387,-1.6365,-1.6365,-1.6366,-1.6366,-1.6366,-1.5766,-1.5781,-1.5827,-1.5862,-1.5895,-1.5929,-1.5948,-1.5987,-1.6019,-1.6066,-1.6095,-1.6131,-1.6177,-1.6243,-1.6272,-1.6301,-1.6314,-1.6316,-1.6316,-1.6315,-1.631,-1.6328,-1.631,-1.631,-1.631,-1.6311,-1.6311,0,-1.5729,-1.5762,-1.5793,-1.5843,-1.5871,-1.5899,-1.5942,-1.5962,-1.5993,-1.6034,-1.6067,-1.611,-1.6148,-1.6198,-1.6239,-1.6253,-1.6269,-1.6262,-1.6261,-1.6267,-1.6297,-1.6291,-1.6248,-1.6248,-1.6248,-1.6248,-1.6248,-1.6248,-1.5713,-1.574,-1.5768,-1.5811,-1.5845,-1.5879,-1.5901,-1.5932,-1.5965,-1.601,-1.6042,-1.6074,-1.6119,-1.6164,-1.62,-1.6214,-1.6227,-1.6215,-1.6233,-1.626,-1.6265,-1.6271,-1.6265,-1.6218,-1.6218,-1.6201,-1.6201,-1.6201]}]]